EN

Hourly Weather Petrovo

Today, 21 October, Wednesday

Time Temperature Precipitation Wind Pressure Humidity
00:00 -1°C° 0 mm 2 mps 750 mmHg 84%
01:00 -1°C° 0 mm 2 mps 750 mmHg 85%
02:00 -1°C° 0 mm 2 mps 750 mmHg 85%
03:00 -1°C° 0 mm 2 mps 750 mmHg 85%
04:00 +1°C° 0 mm 2 mps 749 mmHg 86%
05:00 +1°C° 0 mm 2 mps 749 mmHg 87%
06:00 +1°C° 0 mm 2 mps 749 mmHg 87%
07:00 +2°C° 0 mm 2 mps 749 mmHg 87%
08:00 +1°C° 0 mm 3 mps 749 mmHg 86%
09:00 +2°C° 0.1 mm 3 mps 748 mmHg 88%
10:00 +2°C° 0.1 mm 3 mps 748 mmHg 89%
11:00 +2°C° 0.1 mm 3 mps 748 mmHg 90%
12:00 +3°C° 0.8 mm 4 mps 747 mmHg 92%
13:00 +3°C° 0.8 mm 4 mps 747 mmHg 93%
14:00 +3°C° 0 mm 3 mps 746 mmHg 93%
15:00 +3°C° 0.2 mm 3 mps 746 mmHg 94%
16:00 +3°C° 0.2 mm 3 mps 745 mmHg 95%
17:00 +4°C° 0.2 mm 3 mps 744 mmHg 96%
18:00 +5°C° 0 mm 2 mps 745 mmHg 96%
19:00 +5°C° 0 mm 2 mps 745 mmHg 97%
20:00 +6°C° 0 mm 1 mps 745 mmHg 97%
21:00 +6°C° 0 mm 1 mps 745 mmHg 98%
22:00 +6°C° 0 mm 1 mps 745 mmHg 98%
23:00 +6°C° 0 mm 1 mps 744 mmHg 98%

Tomorrow, 22 October, Thursday

Time Temperature Precipitation Wind Pressure Humidity
00:00 +6°C° 0 mm 1 mps 745 mmHg 98%
01:00 +6°C° 0 mm 1 mps 745 mmHg 98%
02:00 +6°C° 0 mm 1 mps 745 mmHg 98%
03:00 +5°C° 0 mm 2 mps 744 mmHg 98%
04:00 +4°C° 0 mm 2 mps 744 mmHg 97%
05:00 +4°C° 0 mm 2 mps 744 mmHg 97%
06:00 +5°C° 0 mm 2 mps 744 mmHg 96%
07:00 +4°C° 0 mm 3 mps 743 mmHg 95%
08:00 +4°C° 0 mm 3 mps 743 mmHg 93%
09:00 +5°C° 0.7 mm 4 mps 743 mmHg 94%
10:00 +5°C° 0.7 mm 4 mps 742 mmHg 94%
11:00 +5°C° 0.7 mm 4 mps 742 mmHg 94%
12:00 +6°C° 0.2 mm 4 mps 742 mmHg 94%
13:00 +6°C° 0.2 mm 5 mps 741 mmHg 94%
14:00 +7°C° 0.2 mm 5 mps 741 mmHg 93%
15:00 +7°C° 0.1 mm 5 mps 740 mmHg 92%
16:00 +7°C° 0.1 mm 5 mps 740 mmHg 92%
17:00 +8°C° 0.1 mm 5 mps 739 mmHg 91%
18:00 +8°C° 0 mm 5 mps 739 mmHg 90%
19:00 +9°C° 0 mm 5 mps 739 mmHg 90%
20:00 +9°C° 0 mm 5 mps 739 mmHg 89%
21:00 +10°C° 0 mm 5 mps 738 mmHg 88%
22:00 +10°C° 0 mm 5 mps 738 mmHg 87%
23:00 +10°C° 0 mm 6 mps 738 mmHg 86%

Day after tomorrow, 23 October, Friday

Time Temperature Precipitation Wind Pressure Humidity
00:00 +10°C° 0 mm 6 mps 739 mmHg 86%
01:00 +10°C° 0 mm 6 mps 739 mmHg 86%
02:00 +10°C° 0 mm 6 mps 739 mmHg 86%
03:00 +10°C° 0 mm 5 mps 740 mmHg 88%
04:00 +9°C° 0 mm 5 mps 740 mmHg 89%
05:00 +10°C° 0 mm 4 mps 740 mmHg 91%
06:00 +9°C° 0 mm 5 mps 740 mmHg 91%
07:00 +9°C° 0 mm 5 mps 740 mmHg 90%
08:00 +9°C° 0 mm 5 mps 740 mmHg 90%
09:00 +10°C° 0 mm 5 mps 740 mmHg 88%
10:00 +10°C° 0 mm 5 mps 740 mmHg 87%
11:00 +12°C° 0 mm 5 mps 740 mmHg 85%
12:00 +12°C° 0 mm 5 mps 739 mmHg 84%
13:00 +12°C° 0 mm 4 mps 739 mmHg 83%
14:00 +13°C° 0 mm 4 mps 738 mmHg 82%
15:00 +12°C° 1.2 mm 4 mps 738 mmHg 86%
16:00 +12°C° 1.2 mm 5 mps 737 mmHg 90%
17:00 +12°C° 1.2 mm 5 mps 737 mmHg 93%
18:00 +12°C° 0.4 mm 5 mps 737 mmHg 92%
19:00 +12°C° 0.4 mm 5 mps 737 mmHg 90%
20:00 +12°C° 0.4 mm 5 mps 737 mmHg 89%
21:00 +10°C° 0.2 mm 5 mps 737 mmHg 90%
22:00 +11°C° 0.2 mm 4 mps 738 mmHg 90%
23:00 +10°C° 0.2 mm 4 mps 738 mmHg 91%

24 October, Saturday

Time Temperature Precipitation Wind Pressure Humidity
00:00 +8°C° 0 mm 4 mps 738 mmHg 91%
01:00 +8°C° 0 mm 4 mps 738 mmHg 91%
02:00 +7°C° 0 mm 4 mps 739 mmHg 91%
03:00 +8°C° 0 mm 3 mps 739 mmHg 92%
04:00 +7°C° 0 mm 3 mps 739 mmHg 93%
05:00 +7°C° 0 mm 3 mps 739 mmHg 94%
06:00 +7°C° 0 mm 3 mps 739 mmHg 94%
07:00 +7°C° 0 mm 2 mps 739 mmHg 93%
08:00 +7°C° 0 mm 2 mps 740 mmHg 92%
09:00 +8°C° 0 mm 2 mps 740 mmHg 90%
10:00 +8°C° 0 mm 2 mps 740 mmHg 87%
11:00 +9°C° 0 mm 2 mps 740 mmHg 85%
12:00 +9°C° 0 mm 2 mps 740 mmHg 83%
13:00 +10°C° 0 mm 2 mps 740 mmHg 80%
14:00 +10°C° 0 mm 3 mps 740 mmHg 78%
15:00 +9°C° 0 mm 2 mps 740 mmHg 82%
16:00 +9°C° 0 mm 2 mps 740 mmHg 86%
17:00 +9°C° 0 mm 1 mps 740 mmHg 89%
18:00 +9°C° 0 mm 1 mps 740 mmHg 91%
19:00 +9°C° 0 mm 1 mps 740 mmHg 92%
20:00 +9°C° 0 mm 1 mps 740 mmHg 93%
21:00 +8°C° 0 mm 1 mps 740 mmHg 94%
22:00 +8°C° 0 mm 1 mps 740 mmHg 95%
23:00 +8°C° 0 mm 1 mps 739 mmHg 96%

25 October, Sunday

Time Temperature Precipitation Wind Pressure Humidity
00:00 +8°C° 0 mm 1 mps 739 mmHg 96%
01:00 +8°C° 0 mm 1 mps 739 mmHg 96%
02:00 +8°C° 0 mm 1 mps 739 mmHg 96%
03:00 +7°C° 0.2 mm 0 mps 739 mmHg 97%
04:00 +7°C° 0.2 mm 0 mps 739 mmHg 97%
05:00 +7°C° 0.2 mm 0 mps 739 mmHg 97%
06:00 +7°C° 0.1 mm 0 mps 739 mmHg 96%
07:00 +8°C° 0.1 mm 1 mps 739 mmHg 96%
08:00 +8°C° 0.1 mm 1 mps 739 mmHg 95%
09:00 +9°C° 0 mm 1 mps 740 mmHg 91%
10:00 +9°C° 0 mm 2 mps 740 mmHg 87%
11:00 +10°C° 0 mm 2 mps 741 mmHg 83%
12:00 +10°C° 0 mm 2 mps 741 mmHg 80%
13:00 +10°C° 0 mm 2 mps 742 mmHg 78%
14:00 +10°C° 0 mm 2 mps 742 mmHg 76%
15:00 +9°C° 0 mm 2 mps 742 mmHg 81%
16:00 +9°C° 0 mm 2 mps 743 mmHg 86%
17:00 +8°C° 0 mm 2 mps 743 mmHg 91%
18:00 +8°C° 0 mm 2 mps 744 mmHg 92%
19:00 +7°C° 0 mm 2 mps 744 mmHg 93%
20:00 +8°C° 0 mm 1 mps 745 mmHg 94%
21:00 +7°C° 0 mm 2 mps 745 mmHg 95%
22:00 +6°C° 0 mm 2 mps 745 mmHg 96%
23:00 +6°C° 0 mm 2 mps 746 mmHg 96%

26 October, Monday

Time Temperature Precipitation Wind Pressure Humidity
00:00 +6°C° 0 mm 2 mps 746 mmHg 96%
01:00 +7°C° 0 mm 1 mps 746 mmHg 97%
02:00 +7°C° 0 mm 1 mps 747 mmHg 97%
03:00 +6°C° 0 mm 1 mps 747 mmHg 97%
04:00 +6°C° 0 mm 1 mps 748 mmHg 97%
05:00 +6°C° 0 mm 1 mps 748 mmHg 97%
06:00 +6°C° 0 mm 1 mps 748 mmHg 96%
07:00 +6°C° 0 mm 1 mps 749 mmHg 96%
08:00 +7°C° 0 mm 1 mps 749 mmHg 95%
09:00 +7°C° 0 mm 1 mps 750 mmHg 92%
10:00 +8°C° 0 mm 1 mps 750 mmHg 88%
11:00 +8°C° 0 mm 0 mps 750 mmHg 85%
12:00 +8°C° 0 mm 0 mps 750 mmHg 83%
13:00 +8°C° 0 mm 0 mps 750 mmHg 82%
14:00 +9°C° 0 mm 0 mps 751 mmHg 81%
15:00 +8°C° 0 mm 0 mps 751 mmHg 83%
16:00 +9°C° 0 mm 1 mps 751 mmHg 86%
17:00 +8°C° 0 mm 1 mps 751 mmHg 88%
18:00 +8°C° 0 mm 1 mps 751 mmHg 89%
19:00 +8°C° 0 mm 1 mps 752 mmHg 90%
20:00 +7°C° 0 mm 1 mps 752 mmHg 91%
21:00 +7°C° 0 mm 1 mps 752 mmHg 91%
22:00 +7°C° 0 mm 1 mps 752 mmHg 91%
23:00 +7°C° 0 mm 1 mps 752 mmHg 91%

27 October, Tuesday

Time Temperature Precipitation Wind Pressure Humidity
00:00 +6°C° 0 mm 2 mps 753 mmHg 91%
01:00 +6°C° 0 mm 2 mps 753 mmHg 92%
02:00 +5°C° 0 mm 2 mps 753 mmHg 93%
03:00 +6°C° 0 mm 2 mps 753 mmHg 93%
04:00 +6°C° 0 mm 2 mps 753 mmHg 93%
05:00 +6°C° 0 mm 2 mps 753 mmHg 93%
06:00 +6°C° 0 mm 2 mps 753 mmHg 92%
07:00 +6°C° 0 mm 2 mps 753 mmHg 92%
08:00 +6°C° 0 mm 2 mps 753 mmHg 91%
09:00 +7°C° 0 mm 2 mps 754 mmHg 88%
10:00 +8°C° 0 mm 3 mps 754 mmHg 85%
11:00 +9°C° 0 mm 3 mps 754 mmHg 81%
12:00 +9°C° 0 mm 3 mps 754 mmHg 79%
13:00 +9°C° 0 mm 3 mps 753 mmHg 77%
14:00 +10°C° 0 mm 3 mps 753 mmHg 75%
15:00 +9°C° 0 mm 3 mps 753 mmHg 79%
16:00 +7°C° 0 mm 3 mps 753 mmHg 84%
17:00 +6°C° 0 mm 2 mps 753 mmHg 89%
18:00 +6°C° 0 mm 2 mps 753 mmHg 89%
19:00 +5°C° 0 mm 3 mps 753 mmHg 90%
20:00 +5°C° 0 mm 3 mps 753 mmHg 91%
21:00 +4°C° 0 mm 3 mps 753 mmHg 90%
22:00 +4°C° 0 mm 3 mps 753 mmHg 89%
23:00 +4°C° 0 mm 3 mps 753 mmHg 88%
Show more

We Need Your Consent

Meteoprog and our Service Providers may store and access personal data such as cookies, device identifiers or other similar technologies on your device and process such data to personalise content and ads, as well as provide social media features and to analyse the traffic.

  • Store and/or access information on your device

    Cookies, device identifiers or other information can be stored or accessed on your device for the purposes indicated above.

  • Personalised ads and content, ad and content measurement, audience insights, and products development

    Ads and content can be personalised based on a profile. More data can be added to better personalise ads and content. Ad and content performance can be measured. Insights about the audience who saw the ads and content can be derived. Such data can be used to develop or improve user’s experience, systems and software.

By clicking ‘I Agree’ you will allow the use of indicated cookies, device identifiers, web beacons or other similar technologies. Your settings can be changed in the browser on your device.

For certain purposes, legitimate interests may be relied on, rather than consent. You can read more about this in our Privacy and Cookie Policy.